Location: Cuiry
(49.3858°N, 3.7708°E)
Time: 14:23:44
(UTC+00:00)

Cosmos 1953 - Pass Details

Date: 12 January 2026
Orbit: 474 x 489 km, 82.5° (Epoch: 15 February)

Event Time Altitude Azimuth Distance (km) Brightness Sun altitude
Rises 17:12:28 0° 358° (N) 2,587 5.6 -9.9°
Reaches altitude 10° 17:14:46 10° 9° (N) 1,701 4.5 -10.2°
Maximum altitude 17:18:06 31° 73° (ENE) 895 2.8 -10.7°
Drops below altitude 10° 17:21:26 10° 137° (SE) 1,689 4.6 -11.2°
Sets 17:23:42 0° 148° (SSE) 2,565 5.6 -11.6°
